COSMOS 2522 (752) (42939 NORAD) Tracking and Keplerian Element Data

This shows tracking and keplerian element data for the satellite.

Feedback or suggestion? Click here.




ElementValue
Catalog42939
NameCOSMOS 2522 (752)
Epoch Orbit1594
Epoch Day283.22164115
Epoch Year2019
RAAN275.7511
Inclination64.4489
Eccentricity0.0010307
Argument of Perigee247.0815
Mean Anonmoly206.9088
Mean Motion2.13101979
Decay Rate2.2E-07
L11 42939U 17055A 19283.22164115 .00000022 00000-0 00000+0 0 9993
L22 42939 64.4489 275.7511 0010307 247.0815 206.9088 2.13101979 15945

Live tracking and technical data element details for COSMOS 2522 (752) (NORAD 42939). COSMOS 2522 (752) can be tracked NOW for your location showing map with azimuth and elevation plus other details from your city location.

Track the satellite on the map from your city or location and see movement details for azimuth, elevation, latitude, longitude, range, height, and movement on the map or in text.







IsCatalogInMostPopularTable: catalog: 42939, numindb: 322
Update: records affected: 1



GetName: 42939 COSMOS 2522 (752)

Hit Count: updated at: Mon, 14 Oct 2019 00:49:01 GMT